カタログに戻る

STARLINK-36841

運用中通信VLEO
NORAD 67960·PAYLOAD·🇺🇸 United States

打ち上げ Feb 24, 2026 から Vandenberg Space Force Base

Loading…

次のパス (今後24時間)

TLE

最新Source: CelesTrak SupGP

元期: Sep 15, 2026, 04:23 UTC

1 67960C 26037AE  26258.18312500  .00002917  00000+0  10570-3 0  2581
2 67960  43.0001 200.3774 0001358 280.6619  70.8878 15.27567887    15

AllMySatでSTARLINK-36841をリアルタイム追跡

Download on the App Store